Showing default

IRIDE-MS2-HEO-1, 62697

Orbit data source: Space-Track

IRIDE-MS2-HEO-1, 62697 is an Italian payload satellite in SSO that was launched on Tue, 14 Jan 2025 UTC via an FALCON 9 launch vehicle from the Air Force Western Test Range (AFWTR). Payload-class satellites include a variety of spacecraft equipped with specific instruments for various scientific and technological missions. These include communications satellites like Starlink; space stations such as the ISS; scientific satellites like the Hubble; Earth observation satellites from companies like Planet Labs, Umbra, and HawkEye 360; GPS; miniature CubeSats for education and research; and military/defense satellites.

Loading next visibility...
Identifier
62697, 2025-009CS
Orbit
SSO
Country
Flag of ITIT
Related business
Manufacturer
ArgoTec
Mission
Operational Civil Imaging
Bus & Motor
HAWK, Unknown motor
Mass
65 kg wet, 65 kg dry
Launch date (UTC)
2025-01-14 (1 year ago)
Launch vehicle
FALCON 9
Launch site
Air Force Western Test Range (AFWTR)
Object type
Payload
Rocket body
Debris
Shape & HBR
Box + 2 Pan, 3.0 m
Radar Cross Section
0.683 m², Medium (>0.1 m² and < 1m²)

Expand to show TLE details & history
Last TLE update: 10 hours ago

TLE from 10 hours ago
0 IRIDE-MS2-HEO-1
1 62697U 25009CS  26171.44088378  .00001627  00000-0  15626-3 0  9994
2 62697  97.7046 249.6843 0002601  34.0995 326.0392 14.94410276 77827
Epoch: 2026-06-20T10:34Z
TLE epoch observation values (Epoch: 2026-06-20T10:34:52.358Z)
Latitude
-0.00003°
Longitude
-177.68932°
Altitude
585.749 km
Speed
7.568 km/s
True Right ascension
16h 38m 44s
True Declination
0° 00' 00"
Sunlit
Object was in full shadow at epoch
Visualization orbit readout
Latitude
Unknown
Longitude
Unknown
Altitude
Unknown
Speed
Unknown
Apparent Right ascension
Unknown
Apparent Declination
Unknown
Sunlit
N/A
Visualization observer readout
Local Sidereal Time
07:21:42
Azimuth
Unknown
Elevation
Unknown
Doppler factor
Unknown
Orbital elements
Apogee altitude
583.027 km
Perigee altitude
579.407 km
Semi-major axis
6,959.354 km
Eccentricity
0.00026
Inclination
97.7046°
RAAN
249.6843°
Arg. of periapsis
34.0995°
True anomaly
326.02255°
Mean anomaly
326.0392°
Eccentric anomaly
326.03087°
Mean motion
3.73843 °/min
Orbital period
96.3 mins
BSTAR
0.00015626
Loading maneuver chart data...
Computing Atmospheric mass density...
Loading historical data...
Loading historical data...
Loading historical data...
Loading historical data...
Loading historical data...
Loading historical data...
Loading historical data...

Documentation

Showing up to 5 results
|